• In Belarus
  • List of Countries
  • For 7 days
  • Water Temperature
  • Satellite Maps
  • Weather Map
  • Weather Widgets
  • user-avatar
    Login

    Hourly Weather Mirnyy

    Today, 20 May, Monday

    Time Temperature Precipitation Wind Pressure Humidity
    00:00 +17°C° 0 mm 3 mps 752 mmHg 71%
    01:00 +17°C° 0 mm 3 mps 752 mmHg 69%
    02:00 +16°C° 0 mm 3 mps 752 mmHg 67%
    03:00 +16°C° 0 mm 3 mps 752 mmHg 68%
    04:00 +17°C° 0 mm 3 mps 752 mmHg 68%
    05:00 +17°C° 0 mm 3 mps 753 mmHg 68%
    06:00 +17°C° 0 mm 4 mps 753 mmHg 68%
    07:00 +19°C° 0 mm 4 mps 753 mmHg 66%
    08:00 +20°C° 0 mm 4 mps 753 mmHg 64%
    09:00 +22°C° 0 mm 5 mps 754 mmHg 60%
    10:00 +23°C° 0 mm 5 mps 754 mmHg 57%
    11:00 +25°C° 0 mm 5 mps 754 mmHg 54%
    12:00 +26°C° 0 mm 5 mps 754 mmHg 50%
    13:00 +26°C° 0 mm 5 mps 754 mmHg 50%
    14:00 +27°C° 0 mm 5 mps 754 mmHg 50%
    15:00 +27°C° 0 mm 5 mps 754 mmHg 50%
    16:00 +26°C° 0 mm 5 mps 754 mmHg 54%
    17:00 +25°C° 0 mm 5 mps 754 mmHg 58%
    18:00 +23°C° 0 mm 4 mps 754 mmHg 62%
    19:00 +22°C° 0 mm 5 mps 755 mmHg 61%
    20:00 +20°C° 0 mm 5 mps 755 mmHg 60%
    21:00 +17°C° 0 mm 6 mps 755 mmHg 59%
    22:00 +17°C° 0 mm 5 mps 755 mmHg 58%
    23:00 +16°C° 0 mm 5 mps 755 mmHg 56%

    Tomorrow, 21 May, Tuesday

    Time Temperature Precipitation Wind Pressure Humidity
    00:00 +15°C° 0 mm 5 mps 756 mmHg 55%
    01:00 +14°C° 0 mm 5 mps 756 mmHg 54%
    02:00 +14°C° 0 mm 4 mps 756 mmHg 53%
    03:00 +13°C° 0 mm 4 mps 756 mmHg 52%
    04:00 +13°C° 0 mm 4 mps 756 mmHg 55%
    05:00 +13°C° 0 mm 4 mps 756 mmHg 57%
    06:00 +13°C° 0 mm 4 mps 756 mmHg 60%
    07:00 +15°C° 0 mm 5 mps 756 mmHg 57%
    08:00 +17°C° 0 mm 5 mps 757 mmHg 54%
    09:00 +20°C° 0 mm 6 mps 757 mmHg 50%
    10:00 +21°C° 0 mm 6 mps 757 mmHg 49%
    11:00 +22°C° 0 mm 6 mps 757 mmHg 47%
    12:00 +23°C° 0 mm 6 mps 756 mmHg 45%
    13:00 +23°C° 0 mm 6 mps 756 mmHg 46%
    14:00 +24°C° 0 mm 6 mps 756 mmHg 46%
    15:00 +24°C° 0 mm 6 mps 756 mmHg 46%
    16:00 +23°C° 0 mm 5 mps 756 mmHg 50%
    17:00 +23°C° 0 mm 5 mps 755 mmHg 55%
    18:00 +22°C° 0 mm 4 mps 755 mmHg 59%
    19:00 +21°C° 0 mm 5 mps 755 mmHg 57%
    20:00 +19°C° 0 mm 5 mps 755 mmHg 56%
    21:00 +17°C° 0 mm 6 mps 755 mmHg 54%
    22:00 +17°C° 0 mm 6 mps 755 mmHg 51%
    23:00 +16°C° 0 mm 6 mps 754 mmHg 48%

    Day after tomorrow, 22 May, Wednesday

    Time Temperature Precipitation Wind Pressure Humidity
    00:00 +16°C° 0 mm 6 mps 754 mmHg 44%
    01:00 +15°C° 0 mm 6 mps 754 mmHg 49%
    02:00 +14°C° 0 mm 6 mps 754 mmHg 53%
    03:00 +13°C° 0 mm 5 mps 754 mmHg 58%
    04:00 +13°C° 0 mm 6 mps 753 mmHg 57%
    05:00 +13°C° 0 mm 6 mps 753 mmHg 56%
    06:00 +11°C° 0 mm 7 mps 753 mmHg 55%
    07:00 +12°C° 0 mm 7 mps 753 mmHg 55%
    08:00 +13°C° 0 mm 8 mps 753 mmHg 55%
    09:00 +15°C° 0 mm 8 mps 753 mmHg 55%
    10:00 +16°C° 0 mm 8 mps 753 mmHg 56%
    11:00 +17°C° 0 mm 8 mps 752 mmHg 57%
    12:00 +17°C° 0 mm 8 mps 752 mmHg 58%
    13:00 +18°C° 0.1 mm 7 mps 752 mmHg 62%
    14:00 +18°C° 0.1 mm 7 mps 752 mmHg 66%
    15:00 +19°C° 0.1 mm 6 mps 752 mmHg 71%
    16:00 +17°C° 1.9 mm 5 mps 752 mmHg 78%
    17:00 +17°C° 1.9 mm 4 mps 751 mmHg 86%
    18:00 +16°C° 1.9 mm 3 mps 751 mmHg 94%
    19:00 +16°C° 0.1 mm 3 mps 751 mmHg 94%
    20:00 +16°C° 0.1 mm 3 mps 751 mmHg 94%
    21:00 +16°C° 0.1 mm 3 mps 751 mmHg 95%
    22:00 +14°C° 0.6 mm 3 mps 751 mmHg 95%
    23:00 +14°C° 0.6 mm 3 mps 751 mmHg 96%

    23 May, Thursday

    Time Temperature Precipitation Wind Pressure Humidity
    00:00 +14°C° 0.6 mm 3 mps 751 mmHg 97%
    01:00 +14°C° 0.4 mm 3 mps 751 mmHg 97%
    02:00 +14°C° 0.4 mm 3 mps 751 mmHg 96%
    03:00 +14°C° 0.4 mm 3 mps 751 mmHg 96%
    04:00 +14°C° 0 mm 4 mps 751 mmHg 96%
    05:00 +14°C° 0 mm 4 mps 751 mmHg 95%
    06:00 +14°C° 0 mm 4 mps 751 mmHg 95%
    07:00 +15°C° 0.3 mm 5 mps 751 mmHg 89%
    08:00 +17°C° 0.3 mm 5 mps 751 mmHg 84%
    09:00 +19°C° 0.3 mm 5 mps 751 mmHg 78%
    10:00 +20°C° 0.5 mm 6 mps 751 mmHg 76%
    11:00 +20°C° 0.5 mm 6 mps 751 mmHg 73%
    12:00 +21°C° 0.5 mm 7 mps 751 mmHg 71%
    13:00 +21°C° 0.9 mm 7 mps 751 mmHg 72%
    14:00 +21°C° 0.9 mm 7 mps 751 mmHg 73%
    15:00 +20°C° 0.9 mm 7 mps 751 mmHg 75%
    16:00 +20°C° 0.7 mm 7 mps 750 mmHg 77%
    17:00 +20°C° 0.7 mm 6 mps 750 mmHg 79%
    18:00 +19°C° 0.7 mm 6 mps 750 mmHg 82%
    19:00 +17°C° 0.1 mm 5 mps 750 mmHg 85%
    20:00 +16°C° 0.1 mm 5 mps 751 mmHg 89%
    21:00 +15°C° 0.1 mm 4 mps 751 mmHg 93%
    22:00 +14°C° 0 mm 4 mps 751 mmHg 94%
    23:00 +14°C° 0 mm 4 mps 751 mmHg 95%

    24 May, Friday

    Time Temperature Precipitation Wind Pressure Humidity
    00:00 +14°C° 0 mm 4 mps 751 mmHg 96%
    01:00 +14°C° 0 mm 4 mps 751 mmHg 96%
    02:00 +13°C° 0 mm 3 mps 751 mmHg 97%
    03:00 +13°C° 0 mm 3 mps 751 mmHg 97%
    04:00 +13°C° 0 mm 3 mps 751 mmHg 96%
    05:00 +14°C° 0 mm 4 mps 751 mmHg 96%
    06:00 +14°C° 0 mm 4 mps 751 mmHg 95%
    07:00 +17°C° 0 mm 4 mps 751 mmHg 90%
    08:00 +19°C° 0 mm 4 mps 751 mmHg 85%
    09:00 +20°C° 0 mm 4 mps 751 mmHg 80%
    10:00 +21°C° 0.2 mm 4 mps 751 mmHg 73%
    11:00 +23°C° 0.2 mm 4 mps 751 mmHg 67%
    12:00 +25°C° 0.2 mm 5 mps 750 mmHg 61%
    13:00 +25°C° 0 mm 4 mps 750 mmHg 59%
    14:00 +26°C° 0 mm 4 mps 750 mmHg 58%
    15:00 +26°C° 0 mm 4 mps 749 mmHg 56%
    16:00 +26°C° 0.1 mm 3 mps 749 mmHg 60%
    17:00 +25°C° 0.1 mm 3 mps 749 mmHg 64%
    18:00 +25°C° 0.1 mm 2 mps 749 mmHg 68%
    19:00 +23°C° 0 mm 2 mps 749 mmHg 72%
    20:00 +21°C° 0 mm 1 mps 749 mmHg 77%
    21:00 +20°C° 0 mm 1 mps 750 mmHg 81%
    22:00 +19°C° 0 mm 1 mps 749 mmHg 82%
    23:00 +19°C° 0 mm 1 mps 749 mmHg 83%

    25 May, Saturday

    Time Temperature Precipitation Wind Pressure Humidity
    00:00 +17°C° 0 mm 2 mps 749 mmHg 84%
    01:00 +17°C° 0 mm 2 mps 748 mmHg 85%
    02:00 +17°C° 0 mm 2 mps 748 mmHg 86%
    03:00 +17°C° 0 mm 2 mps 748 mmHg 87%
    04:00 +17°C° 0 mm 3 mps 748 mmHg 86%
    05:00 +17°C° 0 mm 3 mps 748 mmHg 85%
    06:00 +18°C° 0 mm 4 mps 748 mmHg 84%
    07:00 +19°C° 0 mm 4 mps 747 mmHg 79%
    08:00 +20°C° 0 mm 5 mps 747 mmHg 75%
    09:00 +21°C° 0 mm 5 mps 746 mmHg 71%
    10:00 +22°C° 0.1 mm 6 mps 746 mmHg 67%
    11:00 +24°C° 0.1 mm 6 mps 745 mmHg 63%
    12:00 +26°C° 0.1 mm 6 mps 745 mmHg 60%
    13:00 +27°C° 0 mm 7 mps 744 mmHg 58%
    14:00 +28°C° 0 mm 7 mps 744 mmHg 56%
    15:00 +29°C° 0 mm 7 mps 743 mmHg 54%
    16:00 +29°C° 0.1 mm 6 mps 743 mmHg 58%
    17:00 +29°C° 0.1 mm 5 mps 743 mmHg 63%
    18:00 +29°C° 0.1 mm 5 mps 743 mmHg 67%
    19:00 +26°C° 0 mm 5 mps 743 mmHg 73%
    20:00 +23°C° 0 mm 6 mps 743 mmHg 78%
    21:00 +21°C° 0 mm 6 mps 743 mmHg 84%
    22:00 +20°C° 0 mm 6 mps 744 mmHg 84%
    23:00 +18°C° 0 mm 7 mps 744 mmHg 84%
    Show more